Regional Weather Roundup
Issued by NWS

Home | Current Version | Previous Version | Graphics & Text | Print | Product List | Glossary On
Versions: 1 2 3 4 5 6 7 8 9 10 11 12 13 14 15 16 17 18 19 20 21 22 23 24 25 26 27 28 29 30 31 32 33 34 35 36 37 38 39 40 41 42 43 44 45 46 47 48 49 50
000
ASUS43 KFSD 160910
RWRSD

WEATHER ROUNDUP FOR SOUTH DAKOTA
NATIONAL WEATHER SERVICE SIOUX FALLS SD
400 AM CDT WED AUG 16 2017

NOTE: "FAIR" INDICATES FEW OR NO CLOUDS BELOW 12,000 FEET WITH NO
SIGNIFICANT WEATHER AND/OR OBSTRUCTIONS TO VISIBILITY.


SDZ001>005-009-010-012>017-161000-
NORTHWEST AND NORTH CENTRAL SOUTH DAKOTA

CITY           SKY/WX    TMP DP  RH WIND       PRES   REMARKS
BUFFALO          N/A     57  54  89 NW7       29.89S
FAITH            N/A     60  60 100 N8        29.92R
MOBRIDGE       CLOUDY    65  62  90 N10       29.84S
$$

SDZ012>016-024>037-041>051-057-063-072>074-161000-
SOUTHWEST AND SOUTH CENTRAL SOUTH DAKOTA

CITY           SKY/WX    TMP DP  RH WIND       PRES   REMARKS
RAPID CTY ARPT CLOUDY    59  54  83 NW7       29.96R
PIERRE         MOCLDY    66  65  96 CALM      29.82R
CUSTER         CLOUDY    54  47  77 W6        30.05R
ELLSWORTH AFB  CLOUDY    60  57  88 NW10      29.95S
PHILIP         CLOUDY    65  64  97 N10       29.88R
PINE RIDGE     CLOUDY    63  63 100 W5        29.94S
SPEARFISH      FAIR      55  52  88 W5        30.00S
WINNER         LGT RAIN  66  62  87 S8        29.85F
$$

SDZ004>011-016>023-039-040-161000-
NORTHEAST SOUTH DAKOTA

CITY           SKY/WX    TMP DP  RH WIND       PRES   REMARKS
ABERDEEN       CLOUDY    65  65 100 SE6       29.84S
WATERTOWN      LGT RAIN  64  64 100 S7        29.86S FOG
BROOKINGS      CLOUDY    66  64  93 S9        29.88R
SISSETON         N/A     65  64  97 SE5       29.86R
$$

SDZ017-020-022-023-036>040-048>070-161000-
SOUTHEAST SOUTH DAKOTA

CITY           SKY/WX    TMP DP  RH WIND       PRES   REMARKS
SIOUX FALLS    CLOUDY    67  66  97 S5        29.87R
HURON          LGT RAIN  66  66 100 S8        29.84S
CHAMBERLAIN    RAIN      66  66 100 SW5       29.85R
MITCHELL       LGT RAIN  67  66  97 S6        29.84F
YANKTON        LGT RAIN  66  64  93 CALM      29.85F
$$

ABBREVIATIONS USED IN REMARKS
   TC - TEMPERATURE IN CELSIUS
  WCI - WIND CHILL INDEX
   HX - HEAT INDEX
  VSB - VISIBILITY




USA.gov is the U.S. government's official web portal to all federal, state and local government web resources and services.